Regional Weather Roundup
Issued by NWS

Home | Current Version | Previous Version | Text Only | Print | Product List | Glossary On
Versions: 1 2 3 4 5 6 7 8 9 10 11 12 13 14 15 16 17 18 19 20 21 22 23 24 25 26 27 28 29 30 31 32 33 34 35 36 37 38 39 40 41 42 43 44 45 46 47 48 49 50
000
ASUS43 KOAX 241202
RWRNE

WEATHER ROUNDUP FOR NEBRASKA
NATIONAL WEATHER SERVICE OMAHA NE
600 AM CST FRI FEB 24 2017

NOTES: SATELLITE DATA IS BEING USED TO AUGMENT CLOUD COVER ABOVE
       12000 FEET.
       "FAIR" INDICATES FEW OR NO CLOUDS BELOW 12,000 FEET WITH NO
       SIGNIFICANT WEATHER AND/OR OBSTRUCTIONS TO VISIBILITY.

  * THESE STATIONS DO NOT REPORT WEATHER SUCH AS RAIN...SNOW OR FOG.

NEZ001>004-019>022-054>056-241300-
NEBRASKA PANHANDLE

CITY           SKY/WX    TMP DP  RH WIND       PRES   REMARKS
SCOTTSBLUFF    CLOUDY    20  15  81 N8        29.93R WCI  10
6HR MIN TEMP:  20; 6HR MAX TEMP:  23; 6HR PCP: TRACE;

ALLIANCE       CLOUDY    19  16  88 N15       29.90S FOG     WCI   5
6HR MIN TEMP:  19; 6HR MAX TEMP:  20; 6HR PCP: TRACE;

CHADRON        LGT SNOW  22  19  89 N3        29.98R FOG
6HR MIN TEMP:  21; 6HR MAX TEMP:  24; 6HR PCP: TRACE;

KIMBALL        LGT SNOW  19  18  98 N10       29.87R WCI   7
SIDNEY         LGT SNOW  19  16  88 N15       29.88S FOG     WCI   5
6HR MIN TEMP:  19; 6HR MAX TEMP:  20; 6HR PCP: TRACE;

$$

NEZ057>060-069>072-079>082-241300-
SOUTHWEST NEBRASKA

CITY           SKY/WX    TMP DP  RH WIND       PRES   REMARKS
NORTH PLATTE   CLOUDY    24  19  81 N16       29.87R HAZE    WCI  11
6HR MIN TEMP:  23; 6HR MAX TEMP:  24; 6HR PCP:  0.03;

IMPERIAL       LGT SNOW  22  18  85 N21       29.88R FOG     WCI   6
6HR MIN TEMP:  22; 6HR MAX TEMP:  24; 6HR PCP: TRACE;

LEXINGTON      LGT SNOW  24  21  87 N25G31    29.81R WCI   8
MCCOOK         LGT SNOW  24  22  91 N21       29.84R FOG     WCI   9
6HR MIN TEMP:  24; 6HR MAX TEMP:  27; 6HR PCP: TRACE;

OGALLALA       CLOUDY    25  20  83 N21G29    29.89R FOG     WCI  10
$$

NEZ005>010-023>029-035>040-094-241300-
NORTH CENTRAL NEBRASKA

CITY           SKY/WX    TMP DP  RH WIND       PRES   REMARKS
VALENTINE      LGT SNOW  21  17  84 NE12      29.97R FOG     WCI   9
6HR MIN TEMP:  21; 6HR MAX TEMP:  24; 6HR PCP: TRACE;

AINSWORTH      LGT SNOW  20  19  96 N24G30    29.93R WCI   3
BROKEN BOW     FOG       23  20  88 N30G38    29.84R VSB 1   WCI   5
6HR MIN TEMP:  23; 6HR MAX TEMP:  25; 6HR PCP:  0.01;

O`NEILL        CLOUDY    21  18  91 N24G33    29.90R WCI   4
ORD            FOG       22  18  85 N26       29.84R VSB 1   WCI   5
6HR MIN TEMP:  22; 6HR MAX TEMP:  26; 6HR PCP:  0.01;

THEDFORD       LGT SNOW  24  21  91 N17G25    29.90R WCI  10
$$

NEZ041-046>049-061>064-073>077-083>087-241300-
SOUTH CENTRAL NEBRASKA

CITY           SKY/WX    TMP DP  RH WIND       PRES   REMARKS
GRAND ISLAND   LGT SNOW  24  22  91 N22G37    29.77R VSB 1   WCI   9
6HR MIN TEMP:  24; 6HR MAX TEMP:  29; 6HR PCP:  0.04;

AURORA         LGT SNOW  25  24  93 N17G24    29.76R WCI  12
HASTINGS       LGT SNOW  26  23  88 N24       29.76R FOG     WCI  11
6HR MIN TEMP:  26; 6HR MAX TEMP:  30; 6HR PCP: TRACE;

HEBRON         MIX PCPN  30  28  92 N10G22    29.71S WCI  21
HOLDREGE       LGT SNOW  25  22  90 N14G21    29.79R WCI  13
KEARNEY *      CLOUDY    25  19  80 N21G28    29.78R WCI  10
YORK           LGT SNOW  27  25  93 N22G36    29.73R WCI  12
$$

NEZ011>018-030>034-042>045-241300-
NORTHEAST NEBRASKA

CITY           SKY/WX    TMP DP  RH WIND       PRES   REMARKS
NORFOLK        CLOUDY    24  21  88 N17G31    29.80R FOG     WCI  11
6HR MIN TEMP:  24; 6HR MAX TEMP:  28; 6HR PCP:  0.06;

ALBION         LGT SNOW  24  20  83 N21G30    29.81R WCI  10
BLAIR          MIX PCPN  30  28  94 N21G29    29.67R WCI  17
FREMONT        MIX PCPN  29  28  98 N16G25    29.73R WCI  17
TEKAMAH        LGT SNOW  27  25  92 N36       29.74R FOG     WCI  10
6HR MIN TEMP:  27; 6HR MAX TEMP:  32; 6HR PCP:  0.01;

WAYNE          LGT SNOW  25  24  94 N17G25    29.79R WCI  12
$$

NEZ050>053-065>068-078-088>093-241300-
SOUTHEAST NEBRASKA

CITY           SKY/WX    TMP DP  RH WIND       PRES   REMARKS
LINCOLN        FRZ RAIN  30  28  92 N24G36    29.70S FOG     WCI  16
6HR MIN TEMP:  30; 6HR MAX TEMP:  33; 6HR PCP:  0.02;

OMAHA EPPLEY   FLURRIES  31  27  85 N18       29.68R WCI  19
6HR MIN TEMP:  31; 6HR MAX TEMP:  35; 6HR PCP:  0.02;

FALLS CITY     CLOUDY    36  33  89 NW10      29.61R WCI  28
6HR MIN TEMP:  36; 6HR MAX TEMP:  39;

NEBRASKA CITY  MIX PCPN  32  32 100 N17G23    29.63R WCI  21
PLATTSMOUTH    LGT SNOW  32  28  88 N14G21    29.65R WCI  22
$$

NEZ044-045-051>053-067-241300-
OMAHA AREA

CITY           SKY/WX    TMP DP  RH WIND       PRES   REMARKS
OMAHA EPPLEY   FLURRIES  31  27  85 N18       29.68R WCI  19
6HR MIN TEMP:  31; 6HR MAX TEMP:  35; 6HR PCP:  0.02;

BLAIR          MIX PCPN  30  28  94 N21G29    29.67R WCI  17
FREMONT        MIX PCPN  29  28  98 N16G25    29.73R WCI  17
MILLARD        CLOUDY    33  30  90 NW9G18    29.69R WCI  25
PLATTSMOUTH    LGT SNOW  32  28  88 N14G21    29.65R WCI  22
WAHOO          LGT SNOW  29  28  94 N26       29.71R WCI  14
$$



USA.gov is the U.S. government's official web portal to all federal, state and local government web resources and services.